Regional Weather Roundup
Issued by NWS Cleveland, OH

Home | Current Version | Previous Version | Graphics & Text | Print | Product List | Glossary On
Versions: 1 2 3 4 5 6 7 8 9 10 11 12 13 14 15 16 17 18 19 20 21 22 23 24 25 26 27 28 29 30 31 32 33 34 35 36 37 38 39 40 41 42 43 44 45 46 47 48 49 50
000
ASUS41 KCLE 240410
RWRCLE
OHIO REGIONAL WEATHER ROUNDUP
NATIONAL WEATHER SERVICE CLEVELAND, OH
1200 AM EDT THU JUL 24 2014

NOTE: "FAIR" INDICATES FEW OR NO CLOUDS BELOW 12,000 FEET WITH NO
SIGNIFICANT WEATHER AND/OR OBSTRUCTIONS TO VISIBILITY.

OHZ001>008-015>018-024>027-034-035-043-044-240500-
   NORTHWEST OHIO

CITY           SKY/WX    TMP DP  RH WIND       PRES   REMARKS
DEFIANCE       PTCLDY    63  59  87 CALM      30.07S
FINDLAY        CLEAR     61  58  90 CALM      30.06S
TOLEDO EXPRESS MOCLDY    60  58  92 CALM      30.08R
TOLEDO EXEC    CLEAR     64  57  78 NE3       30.08S
LIMA           CLEAR     61  58  90 E3        30.07S
$$

OHZ009>014-019>023-028>033-038-089-240500-
   NORTHEAST OHIO

CITY           SKY/WX    TMP DP  RH WIND       PRES   REMARKS
CLE-HOPKINS    CLOUDY    64  56  75 N10       30.06F
CLE-LAKEFRONT  CLOUDY    65  59  81 N15       30.04R
CUY CO. ARPT   NOT AVBL
LORAIN-ELYRIA  MOCLDY    64  55  72 N7        30.06F
ASHTABULA      CLOUDY    64  54  69 NE6       30.04S
AKRON-CANTON   PTCLDY    62  56  80 N8        30.03F
WOOSTER        CLEAR     59  55  87 N8        30.05F
MANSFIELD      CLEAR     57  55  93 N6        30.07S
YOUNGSTOWN     CLOUDY    63  60  90 NW5       30.03S
$$

OHZ042-051>053-060>062-070>072-077>081-240500-
  SOUTHWEST OHIO

CITY           SKY/WX    TMP DP  RH WIND       PRES   REMARKS
CINC-COVINGTON LGT RAIN  70  66  88 N15       30.01S
CINC-LUNKEN    LGT RAIN  69  67  93 NE8       30.02R
HAMILTON       CLOUDY    69  66  90 NE6       30.03F
DAYTON         CLOUDY    66  62  87 NE7       30.07R
WRIGHT-PAT AFB CLOUDY    66  62  86 NE12      30.05S
DAYTON GENERAL CLOUDY    67  63  87 NE12      30.03S
WILMINGTON     CLOUDY    66  62  87 NE15      30.02S
$$

OHZ036-037-039>041-045>050-054>059-063>069-073>076-082>088-240500-
  CENTRAL AND SOUTHEAST OHIO

CITY           SKY/WX    TMP DP  RH WIND       PRES   REMARKS
COLUMBUS       CLOUDY    66  55  68 N14       30.04R
OSU AIRPORT    PTCLDY    63  56  78 NE7       30.05R
BOLTON FIELD   CLOUDY    64  58  80 N15       30.04S
RICKENBACK AFB CLOUDY    66  57  72 NE7       29.99S
NEWARK         CLOUDY    64  56  75 N7        30.04S
MARION         CLEAR     59  56  89 N3        30.06S
LANCASTER      CLOUDY    65  60  84 N8        30.03F
ZANESVILLE     CLOUDY    65  57  75 N7        30.04R
NEW PHILLY     CLOUDY    65  58  78 N5        30.03F
$$


USA.gov is the U.S. government's official web portal to all federal, state and local government web resources and services.